HSU-SAT1 (53462 NORAD) Tracking and Keplerian Element Data

This shows tracking and keplerian element data for the satellite.

Feedback or suggestion? Click here.




ElementValue
Catalog53462
NameHSU-SAT1
Epoch Orbit712
Epoch Day270.18117362
Epoch Year2022
RAAN190.5725
Inclination51.6405
Eccentricity0.0004985
Argument of Perigee298.2181
Mean Anonmoly61.8306
Mean Motion15.53775849
Decay Rate0.00050072
L11 53462U 98067UB 22270.18117362 .00050072 00000+0 76836-3 0 9998
L22 53462 51.6405 190.5725 0004985 298.2181 61.8306 15.53775849 7127

Live tracking and technical data element details for HSU-SAT1 (NORAD 53462). HSU-SAT1 can be tracked NOW for your location showing map with azimuth and elevation plus other details from your city location.

Track the satellite on the map from your city or location and see movement details for azimuth, elevation, latitude, longitude, range, height, and movement on the map or in text.







IsCatalogInMostPopularTable: catalog: 53462, numindb: 3
Update: records affected: 1



GetName: 53462 HSU-SAT1

Hit Count: updated at: Fri, 30 Sep 2022 03:15:54 GMT